| time (UTC) | temp C | wind direction | speed KPH | gust KPH | rain 1hr cm | rain 24hr cm | rain mn cm | humidity % | barometer mb |
| 20260506185410 | 27 | 153 | 4.8 | 8.0 | 0.00 | 0.00 | 0.00 | 88 | 1011.2 |
| 20260506184907 | 28 | 149 | 0.0 | 0.0 | 0.00 | 0.00 | 0.00 | 88 | 1011.3 |
| 20260506184404 | 28 | 157 | 1.6 | 8.0 | 0.00 | 0.00 | 0.00 | 87 | 1011.1 |
| 20260506183901 | 28 | 160 | 3.2 | 3.2 | 0.00 | 0.00 | 0.00 | 86 | 1011.2 |
| 20260506183355 | 28 | 130 | 3.2 | 3.2 | 0.00 | 0.00 | 0.00 | 87 | 1011.3 |
| 20260506182853 | 28 | 163 | 3.2 | 3.2 | 0.00 | 0.00 | 0.00 | 86 | 1011.3 |
| 20260506182350 | 28 | 135 | 3.2 | 3.2 | 0.00 | 0.00 | 0.00 | 86 | 1011.5 |
| 20260506181848 | 28 | 165 | 0.0 | 1.6 | 0.00 | 0.00 | 0.00 | 86 | 1011.5 |
| 20260506181346 | 28 | 160 | 1.6 | 1.6 | 0.00 | 0.00 | 0.00 | 86 | 1011.4 |
| 20260506180843 | 28 | 144 | 1.6 | 3.2 | 0.00 | 0.00 | 0.00 | 86 | 1011.5 |
| 20260506180339 | 28 | 164 | 0.0 | 1.6 | 0.00 | 0.00 | 0.00 | 86 | 1011.5 |
| 20260506175835 | 28 | 171 | 3.2 | 3.2 | 0.00 | 0.00 | 0.00 | 87 | 1011.6 |
| 20260506175332 | 28 | 159 | 1.6 | 3.2 | 0.00 | 0.00 | 0.00 | 87 | 1011.6 |
| 20260506174829 | 28 | 155 | 1.6 | 3.2 | 0.00 | 0.00 | 0.00 | 88 | 1011.6 |
| 20260506174327 | 28 | 168 | 4.8 | 4.8 | 0.00 | 0.00 | 0.00 | 87 | 1011.6 |
| 20260506173824 | 28 | 148 | 1.6 | 1.6 | 0.00 | 0.00 | 0.00 | 87 | 1011.6 |
| 20260506173321 | 28 | 113 | 1.6 | 3.2 | 0.00 | 0.00 | 0.00 | 86 | 1011.9 |
| 20260506172818 | 28 | 144 | 3.2 | 3.2 | 0.00 | 0.00 | 0.00 | 86 | 1011.9 |
| 20260506172314 | 28 | 171 | 4.8 | 8.0 | 0.00 | 0.00 | 0.00 | 85 | 1012.0 |
| 20260506171812 | 28 | 143 | 0.0 | 1.6 | 0.00 | 0.00 | 0.00 | 85 | 1012.0 |
| 20260506171309 | 28 | 147 | 0.0 | 0.0 | 0.00 | 0.00 | 0.00 | 85 | 1012.0 |
| 20260506170807 | 29 | 178 | 6.4 | 9.7 | 0.00 | 0.00 | 0.00 | 83 | 1012.2 |
| 20260506170302 | 29 | 153 | 1.6 | 3.2 | 0.00 | 0.00 | 0.00 | 85 | 1011.9 |
| 20260506165802 | 29 | 138 | 3.2 | 4.8 | 0.00 | 0.00 | 0.00 | 85 | 1011.9 |
| 20260506165258 | 29 | 169 | 4.8 | 8.0 | 0.00 | 0.00 | 0.00 | 84 | 1011.9 |
| 20260506164755 | 28 | 233 | 1.6 | 3.2 | 0.00 | 0.00 | 0.00 | 85 | 1011.9 |
| 20260506164252 | 28 | 158 | 3.2 | 3.2 | 0.00 | 0.00 | 0.00 | 87 | 1011.8 |
| 20260506163749 | 28 | 155 | 4.8 | 4.8 | 0.00 | 0.00 | 0.00 | 88 | 1011.8 |
| 20260506163244 | 28 | 122 | 0.0 | 1.6 | 0.00 | 0.00 | 0.00 | 89 | 1011.7 |
| 20260506162740 | 28 | 169 | 1.6 | 3.2 | 0.00 | 0.00 | 0.00 | 88 | 1011.9 |
| 20260506162238 | 28 | 153 | 3.2 | 3.2 | 0.00 | 0.00 | 0.00 | 88 | 1011.9 |
| 20260506161735 | 27 | 133 | 4.8 | 4.8 | 0.00 | 0.00 | 0.00 | 90 | 1011.8 |
| 20260506161232 | 27 | 128 | 3.2 | 4.8 | 0.00 | 0.00 | 0.00 | 91 | 1012.0 |
| 20260506160729 | 27 | 164 | 1.6 | 3.2 | 0.00 | 0.00 | 0.00 | 92 | 1011.7 |
| 20260506160226 | 27 | 272 | 4.8 | 4.8 | 0.00 | 0.00 | 0.00 | 91 | 1011.8 |
| 20260506155725 | 27 | 144 | 4.8 | 11.3 | 0.00 | 0.00 | 0.00 | 91 | 1011.6 |
| 20260506155221 | 27 | 149 | 1.6 | 1.6 | 0.00 | 0.00 | 0.00 | 93 | 1011.5 |
| 20260506153323 | 26 | 158 | 3.2 | 4.8 | 0.00 | 0.00 | 0.00 | 96 | 1011.5 |
| 20260506152820 | 26 | 159 | 0.0 | 1.6 | 0.00 | 0.00 | 0.00 | 96 | 1011.3 |
| 20260506152317 | 26 | 150 | 3.2 | 4.8 | 0.00 | 0.00 | 0.00 | 97 | 1011.3 |
| 20260506151816 | 26 | 141 | 8.0 | 11.3 | 0.00 | 0.00 | 0.00 | 97 | 1011.0 |
| 20260506151312 | 26 | 137 | 0.0 | 0.0 | 0.00 | 0.00 | 0.00 | 97 | 1011.1 |
| 20260506150809 | 26 | 127 | 3.2 | 3.2 | 0.00 | 0.00 | 0.00 | 97 | 1011.0 |
| 20260506150306 | 25 | 151 | 1.6 | 3.2 | 0.00 | 0.00 | 0.00 | 97 | 1011.1 |
| 20260506145803 | 25 | 154 | 4.8 | 4.8 | 0.00 | 0.00 | 0.00 | 98 | 1010.9 |
| 20260506145259 | 25 | 195 | 4.8 | 9.7 | 0.00 | 0.00 | 0.00 | 98 | 1010.9 |
| 20260506144757 | 26 | 148 | 3.2 | 4.8 | 0.00 | 0.00 | 0.00 | 98 | 1010.8 |
| 20260506144253 | 25 | 155 | 0.0 | 1.6 | 0.00 | 0.00 | 0.00 | 98 | 1010.8 |
| 20260506143751 | 25 | 136 | 4.8 | 4.8 | 0.00 | 0.00 | 0.00 | 99 | 1010.8 |
| 20260506143248 | 25 | 152 | 0.0 | 0.0 | 0.00 | 0.00 | 0.00 | 99 | 1010.9 |
| 20260506142747 | 25 | 171 | 1.6 | 3.2 | 0.00 | 0.00 | 0.00 | 99 | 1010.8 |
| 20260506142244 | 25 | 163 | 3.2 | 3.2 | 0.00 | 0.00 | 0.00 | 99 | 1010.6 |
| 20260506141742 | 25 | 146 | 0.0 | 1.6 | 0.00 | 0.00 | 0.00 | 99 | 1010.9 |
| 20260506141240 | 25 | 151 | 0.0 | 1.6 | 0.00 | 0.00 | 0.00 | 99 | 1010.9 |
| 20260506140738 | 25 | 149 | 0.0 | 1.6 | 0.00 | 0.00 | 0.00 | 99 | 1011.0 |
| 20260506140234 | 25 | 160 | 0.0 | 1.6 | 0.00 | 0.00 | 0.00 | 99 | 1011.1 |
| 20260506135731 | 25 | 138 | 3.2 | 3.2 | 0.00 | 0.00 | 0.00 | 99 | 1011.1 |
| 20260506135227 | 25 | 138 | 4.8 | 4.8 | 0.00 | 0.00 | 0.00 | 99 | 1010.9 |
| 20260506134725 | 25 | 140 | 1.6 | 1.6 | 0.00 | 0.00 | 0.00 | 99 | 1011.0 |
| 20260506134221 | 25 | 152 | 1.6 | 3.2 | 0.00 | 0.00 | 0.00 | 99 | 1011.0 |
| 20260506133718 | 25 | 136 | 0.0 | 0.0 | 0.00 | 0.00 | 0.00 | 99 | 1011.0 |
| 20260506133214 | 25 | 135 | 0.0 | 1.6 | 0.00 | 0.00 | 0.00 | 99 | 1011.2 |
| 20260506132712 | 25 | 137 | 0.0 | 0.0 | 0.00 | 0.00 | 0.00 | 99 | 1011.0 |
| 20260506132209 | 25 | 154 | 0.0 | 0.0 | 0.00 | 0.00 | 0.00 | 99 | 1011.0 |
| 20260506131707 | 25 | 153 | 0.0 | 0.0 | 0.00 | 0.00 | 0.00 | 99 | 1011.1 |
| 20260506131202 | 25 | 151 | 0.0 | 0.0 | 0.00 | 0.00 | 0.00 | 99 | 1011.2 |
| 20260506130659 | 25 | 143 | 0.0 | 0.0 | 0.00 | 0.00 | 0.00 | 99 | 1011.1 |
| 20260506130157 | 25 | 132 | 0.0 | 0.0 | 0.00 | 0.00 | 0.00 | 99 | 1011.1 |
| 20260506125655 | 25 | 133 | 0.0 | 1.6 | 0.00 | 0.00 | 0.00 | 99 | 1010.9 |
| 20260506125152 | 25 | 161 | 0.0 | 0.0 | 0.00 | 0.00 | 0.00 | 99 | 1011.0 |
| 20260506124650 | 25 | 154 | 0.0 | 1.6 | 0.00 | 0.00 | 0.00 | 99 | 1011.0 |
| 20260506124148 | 25 | 167 | 1.6 | 1.6 | 0.00 | 0.00 | 0.00 | 99 | 1010.8 |
| 20260506123645 | 25 | 135 | 0.0 | 0.0 | 0.00 | 0.00 | 0.00 | 99 | 1010.8 |
| 20260506123144 | 25 | 155 | 0.0 | 0.0 | 0.00 | 0.00 | 0.00 | 99 | 1010.9 |
| 20260506122640 | 25 | 147 | 1.6 | 3.2 | 0.00 | 0.00 | 0.00 | 99 | 1010.7 |
| 20260506122138 | 25 | 146 | 0.0 | 0.0 | 0.00 | 0.00 | 0.00 | 99 | 1010.8 |
| 20260506121635 | 25 | 135 | 0.0 | 0.0 | 0.00 | 0.00 | 0.00 | 99 | 1010.8 |
| 20260506121131 | 25 | 154 | 0.0 | 0.0 | 0.00 | 0.00 | 0.00 | 99 | 1010.7 |
| 20260506120629 | 25 | 148 | 1.6 | 1.6 | 0.00 | 0.00 | 0.00 | 99 | 1010.6 |
| 20260506120126 | 25 | 148 | 1.6 | 1.6 | 0.00 | 0.00 | 0.00 | 99 | 1010.4 |
| 20260506115625 | 25 | 169 | 0.0 | 1.6 | 0.00 | 0.00 | 0.00 | 99 | 1010.3 |
| 20260506115123 | 24 | 142 | 0.0 | 1.6 | 0.00 | 0.00 | 0.00 | 99 | 1010.3 |
| 20260506114620 | 24 | 134 | 0.0 | 0.0 | 0.00 | 0.00 | 0.00 | 99 | 1010.3 |
| 20260506114118 | 24 | 165 | 1.6 | 1.6 | 0.00 | 0.00 | 0.00 | 99 | 1010.3 |
| 20260506113616 | 24 | 146 | 1.6 | 1.6 | 0.00 | 0.00 | 0.00 | 99 | 1010.1 |
| 20260506113113 | 24 | 155 | 1.6 | 3.2 | 0.00 | 0.00 | 0.00 | 99 | 1010.0 |
| 20260506112609 | 24 | 135 | 4.8 | 8.0 | 0.00 | 0.00 | 0.00 | 99 | 1010.0 |
| 20260506112107 | 24 | 142 | 0.0 | 0.0 | 0.00 | 0.00 | 0.00 | 99 | 1009.9 |
| 20260506111604 | 24 | 160 | 1.6 | 1.6 | 0.00 | 0.00 | 0.00 | 99 | 1010.0 |
| 20260506111101 | 24 | 160 | 0.0 | 0.0 | 0.00 | 0.00 | 0.00 | 99 | 1010.0 |
| 20260506110559 | 24 | 151 | 0.0 | 0.0 | 0.00 | 0.00 | 0.00 | 99 | 1010.0 |
| 20260506110056 | 24 | 144 | 0.0 | 0.0 | 0.00 | 0.00 | 0.00 | 99 | 1010.0 |
| 20260506105552 | 24 | 147 | 0.0 | 0.0 | 0.00 | 0.00 | 0.00 | 99 | 1010.0 |
| 20260506105050 | 24 | 145 | 0.0 | 1.6 | 0.00 | 0.00 | 0.00 | 99 | 1010.1 |
| 20260506104548 | 24 | 139 | 3.2 | 3.2 | 0.00 | 0.00 | 0.00 | 99 | 1009.7 |
| 20260506104045 | 24 | 152 | 1.6 | 1.6 | 0.00 | 0.00 | 0.00 | 99 | 1009.9 |
| 20260506103542 | 24 | 142 | 1.6 | 1.6 | 0.00 | 0.00 | 0.00 | 99 | 1010.1 |
| 20260506103038 | 24 | 162 | 0.0 | 0.0 | 0.00 | 0.00 | 0.00 | 99 | 1010.1 |
| 20260506102537 | 24 | 162 | 1.6 | 1.6 | 0.00 | 0.00 | 0.00 | 99 | 1009.9 |
| 20260506102034 | 24 | 153 | 0.0 | 0.0 | 0.00 | 0.00 | 0.00 | 99 | 1009.8 |
| 20260506101531 | 24 | 144 | 0.0 | 0.0 | 0.00 | 0.00 | 0.00 | 99 | 1009.9 |
| 20260506101028 | 24 | 155 | 0.0 | 0.0 | 0.00 | 0.00 | 0.00 | 99 | 1009.6 |
| 20260506100526 | 24 | 145 | 0.0 | 1.6 | 0.00 | 0.00 | 0.00 | 99 | 1009.7 |
| 20260506100024 | 24 | 148 | 0.0 | 0.0 | 0.00 | 0.00 | 0.00 | 99 | 1009.6 |
| 20260506095523 | 24 | 153 | 0.0 | 1.6 | 0.00 | 0.00 | 0.00 | 99 | 1009.6 |
| 20260506095018 | 24 | 142 | 0.0 | 0.0 | 0.00 | 0.00 | 0.00 | 99 | 1009.7 |
| 20260506094516 | 24 | 148 | 3.2 | 4.8 | 0.00 | 0.00 | 0.00 | 99 | 1009.7 |
| 20260506094014 | 24 | 156 | 0.0 | 0.0 | 0.00 | 0.00 | 0.00 | 99 | 1009.7 |
| 20260506093512 | 24 | 156 | 1.6 | 3.2 | 0.00 | 0.00 | 0.00 | 99 | 1009.6 |
| 20260506093009 | 24 | 127 | 1.6 | 3.2 | 0.00 | 0.00 | 0.00 | 99 | 1009.5 |
| 20260506092507 | 24 | 137 | 1.6 | 1.6 | 0.00 | 0.00 | 0.00 | 99 | 1009.5 |
| 20260506092003 | 24 | 126 | 0.0 | 0.0 | 0.00 | 0.00 | 0.00 | 99 | 1009.6 |
| 20260506091502 | 24 | 145 | 0.0 | 1.6 | 0.00 | 0.00 | 0.00 | 99 | 1009.5 |
| 20260506090958 | 25 | 147 | 1.6 | 3.2 | 0.00 | 0.00 | 0.00 | 99 | 1009.9 |
| 20260506090457 | 24 | 157 | 0.0 | 0.0 | 0.00 | 0.00 | 0.00 | 99 | 1009.8 |
| 20260506085952 | 25 | 147 | 1.6 | 1.6 | 0.00 | 0.00 | 0.00 | 98 | 1009.9 |
| 20260506085449 | 25 | 151 | 0.0 | 0.0 | 0.00 | 0.00 | 0.00 | 98 | 1009.9 |
| 20260506084946 | 25 | 155 | 0.0 | 0.0 | 0.00 | 0.00 | 0.00 | 98 | 1009.9 |
| 20260506084443 | 24 | 150 | 1.6 | 1.6 | 0.00 | 0.00 | 0.00 | 98 | 1009.9 |
| 20260506083939 | 24 | 132 | 0.0 | 0.0 | 0.00 | 0.00 | 0.00 | 98 | 1009.9 |
| 20260506083436 | 25 | 146 | 0.0 | 0.0 | 0.00 | 0.00 | 0.00 | 98 | 1009.9 |
| 20260506082933 | 25 | 140 | 1.6 | 1.6 | 0.00 | 0.00 | 0.00 | 98 | 1010.2 |
| 20260506082430 | 25 | 154 | 0.0 | 0.0 | 0.00 | 0.00 | 0.00 | 98 | 1010.2 |
| 20260506081926 | 25 | 158 | 4.8 | 4.8 | 0.00 | 0.00 | 0.00 | 98 | 1010.3 |
| 20260506081425 | 25 | 149 | 0.0 | 0.0 | 0.00 | 0.00 | 0.00 | 98 | 1010.1 |
| 20260506080921 | 25 | 140 | 0.0 | 1.6 | 0.00 | 0.00 | 0.00 | 98 | 1010.1 |
| 20260506080418 | 25 | 136 | 1.6 | 3.2 | 0.00 | 0.00 | 0.00 | 98 | 1010.2 |
| 20260506073402 | 25 | 135 | 3.2 | 3.2 | 0.00 | 0.00 | 0.00 | 98 | 1010.7 |
| 20260506072859 | 25 | 136 | 0.0 | 0.0 | 0.00 | 0.00 | 0.00 | 98 | 1010.6 |
| 20260506072357 | 25 | 165 | 3.2 | 3.2 | 0.00 | 0.00 | 0.00 | 98 | 1010.7 |
| 20260506071854 | 25 | 138 | 1.6 | 3.2 | 0.00 | 0.00 | 0.00 | 98 | 1010.7 |
| 20260506071352 | 25 | 153 | 3.2 | 3.2 | 0.00 | 0.00 | 0.00 | 98 | 1010.6 |
| 20260506070849 | 25 | 151 | 0.0 | 0.0 | 0.00 | 0.00 | 0.00 | 98 | 1010.9 |
| 20260506070346 | 25 | 171 | 3.2 | 3.2 | 0.00 | 0.00 | 0.00 | 98 | 1010.7 |
| 20260506062323 | 24 | 156 | 6.4 | 8.0 | 0.00 | 0.00 | 0.00 | 98 | 1010.6 |
| 20260506061819 | 24 | 154 | 3.2 | 4.8 | 0.00 | 0.00 | 0.00 | 97 | 1010.6 |
| 20260506061316 | 24 | 147 | 3.2 | 3.2 | 0.00 | 0.00 | 0.00 | 97 | 1010.8 |
| 20260506060814 | 24 | 168 | 3.2 | 3.2 | 0.00 | 0.00 | 0.00 | 97 | 1010.7 |
| 20260506060312 | 25 | 158 | 1.6 | 3.2 | 0.00 | 0.00 | 0.00 | 97 | 1010.8 |
| 20260506051243 | 25 | 142 | 0.0 | 1.6 | 0.00 | 0.00 | 0.00 | 97 | 1010.9 |
| 20260506050741 | 25 | 123 | 3.2 | 4.8 | 0.00 | 0.00 | 0.00 | 97 | 1010.5 |
| 20260506050238 | 25 | 140 | 1.6 | 3.2 | 0.00 | 0.00 | 0.00 | 97 | 1010.7 |
| 20260506044729 | 25 | 164 | 1.6 | 3.2 | 0.00 | 0.00 | 0.00 | 96 | 1010.7 |
| 20260506044226 | 25 | 140 | 3.2 | 4.8 | 0.00 | 0.00 | 0.00 | 96 | 1010.7 |
| 20260506043724 | 25 | 180 | 3.2 | 4.8 | 0.00 | 0.00 | 0.00 | 96 | 1010.7 |
| 20260506043221 | 25 | 133 | 3.2 | 3.2 | 0.00 | 0.00 | 0.00 | 96 | 1010.8 |
| 20260506042720 | 25 | 170 | 3.2 | 4.8 | 0.00 | 0.00 | 0.00 | 96 | 1010.8 |
| 20260506042218 | 25 | 149 | 3.2 | 4.8 | 0.00 | 0.00 | 0.00 | 96 | 1010.7 |
| 20260506041716 | 25 | 98 | 3.2 | 9.7 | 0.00 | 0.00 | 0.00 | 96 | 1010.7 |
| 20260506041213 | 25 | 135 | 3.2 | 3.2 | 0.00 | 0.00 | 0.00 | 96 | 1010.6 |
| 20260506040710 | 25 | 166 | 6.4 | 9.7 | 0.00 | 0.00 | 0.00 | 96 | 1010.6 |
| 20260506040207 | 25 | 166 | 3.2 | 3.2 | 0.00 | 0.00 | 0.00 | 96 | 1010.6 |
| 20260506035703 | 25 | 165 | 4.8 | 4.8 | 0.00 | 0.00 | 0.00 | 96 | 1010.6 |
| 20260506035200 | 25 | 145 | 4.8 | 9.7 | 0.00 | 0.00 | 0.00 | 96 | 1010.8 |
| 20260506034657 | 25 | 170 | 4.8 | 4.8 | 0.00 | 0.00 | 0.00 | 96 | 1010.8 |
| 20260506034155 | 25 | 165 | 3.2 | 4.8 | 0.00 | 0.00 | 0.00 | 96 | 1010.6 |
| 20260506033652 | 25 | 159 | 3.2 | 4.8 | 0.00 | 0.00 | 0.00 | 96 | 1010.5 |
| 20260506033149 | 25 | 160 | 6.4 | 12.9 | 0.00 | 0.00 | 0.00 | 96 | 1010.7 |
| 20260506032646 | 25 | 126 | 1.6 | 1.6 | 0.00 | 0.00 | 0.00 | 96 | 1010.6 |
| 20260506032143 | 25 | 173 | 8.0 | 12.9 | 0.00 | 0.00 | 0.00 | 96 | 1010.6 |
| 20260506031639 | 25 | 144 | 4.8 | 8.0 | 0.00 | 0.00 | 0.00 | 96 | 1010.7 |
| 20260506031136 | 25 | 135 | 3.2 | 3.2 | 0.00 | 0.00 | 0.00 | 96 | 1010.4 |
| 20260506030635 | 25 | 148 | 1.6 | 1.6 | 0.00 | 0.00 | 0.00 | 96 | 1010.4 |
| 20260506030132 | 25 | 166 | 4.8 | 8.0 | 0.00 | 0.00 | 0.00 | 96 | 1010.5 |
| 20260506025629 | 25 | 147 | 6.4 | 9.7 | 0.00 | 0.00 | 0.00 | 96 | 1010.3 |
| 20260506025125 | 25 | 151 | 3.2 | 3.2 | 0.00 | 0.00 | 0.00 | 96 | 1010.2 |
| 20260506024623 | 25 | 151 | 3.2 | 3.2 | 0.00 | 0.00 | 0.00 | 96 | 1010.2 |
| 20260506024118 | 25 | 149 | 1.6 | 3.2 | 0.00 | 0.00 | 0.00 | 96 | 1010.2 |
| 20260506023615 | 25 | 152 | 3.2 | 3.2 | 0.00 | 0.00 | 0.00 | 96 | 1010.1 |
| 20260506023112 | 25 | 171 | 4.8 | 4.8 | 0.00 | 0.00 | 0.00 | 96 | 1010.0 |
| 20260506022610 | 25 | 175 | 4.8 | 4.8 | 0.00 | 0.00 | 0.00 | 96 | 1009.7 |
| 20260506022107 | 25 | 156 | 4.8 | 8.0 | 0.00 | 0.00 | 0.00 | 96 | 1009.8 |
| 20260506021604 | 25 | 151 | 1.6 | 1.6 | 0.00 | 0.00 | 0.00 | 96 | 1009.9 |
| 20260506021101 | 25 | 150 | 4.8 | 9.7 | 0.00 | 0.00 | 0.00 | 96 | 1009.6 |
| 20260506020559 | 25 | 150 | 3.2 | 8.0 | 0.00 | 0.00 | 0.00 | 96 | 1009.7 |
| 20260506020056 | 24 | 147 | 3.2 | 3.2 | 0.00 | 0.00 | 0.00 | 96 | 1009.7 |
| 20260506015554 | 24 | 158 | 1.6 | 3.2 | 0.00 | 0.00 | 0.00 | 96 | 1009.6 |
| 20260506015050 | 24 | 154 | 1.6 | 3.2 | 0.00 | 0.00 | 0.00 | 96 | 1009.5 |
| 20260506014548 | 24 | 143 | 1.6 | 3.2 | 0.00 | 0.00 | 0.00 | 96 | 1009.4 |
| 20260506014043 | 24 | 159 | 1.6 | 4.8 | 0.00 | 0.00 | 0.00 | 96 | 1009.3 |
| 20260506013542 | 24 | 164 | 3.2 | 4.8 | 0.00 | 0.00 | 0.00 | 96 | 1009.3 |
| 20260506013038 | 24 | 145 | 1.6 | 1.6 | 0.00 | 0.00 | 0.00 | 95 | 1009.2 |
| 20260506012534 | 25 | 154 | 3.2 | 3.2 | 0.00 | 0.00 | 0.00 | 95 | 1009.2 |
| 20260506012031 | 25 | 154 | 3.2 | 4.8 | 0.00 | 0.00 | 0.00 | 95 | 1009.0 |
| 20260506011529 | 25 | 168 | 4.8 | 8.0 | 0.00 | 0.00 | 0.00 | 95 | 1008.8 |
| 20260506011025 | 25 | 145 | 1.6 | 1.6 | 0.00 | 0.00 | 0.00 | 94 | 1008.7 |
| 20260506010524 | 25 | 146 | 1.6 | 1.6 | 0.00 | 0.00 | 0.00 | 94 | 1008.9 |
| 20260506010020 | 25 | 151 | 3.2 | 4.8 | 0.00 | 0.00 | 0.00 | 94 | 1009.0 |
| 20260506005518 | 25 | 137 | 1.6 | 1.6 | 0.00 | 0.00 | 0.00 | 93 | 1008.8 |
| 20260506005013 | 25 | 168 | 3.2 | 4.8 | 0.00 | 0.00 | 0.00 | 93 | 1008.8 |
| 20260506004511 | 25 | 154 | 1.6 | 3.2 | 0.00 | 0.00 | 0.00 | 92 | 1008.9 |
| 20260506004007 | 25 | 163 | 3.2 | 4.8 | 0.00 | 0.00 | 0.00 | 92 | 1008.6 |
| 20260506003504 | 25 | 143 | 6.4 | 9.7 | 0.00 | 0.00 | 0.00 | 92 | 1008.7 |
| 20260506003000 | 25 | 169 | 3.2 | 3.2 | 0.00 | 0.00 | 0.00 | 91 | 1008.7 |
| 20260506002456 | 25 | 147 | 0.0 | 1.6 | 0.00 | 0.00 | 0.00 | 91 | 1008.8 |
| 20260506001951 | 25 | 154 | 1.6 | 1.6 | 0.00 | 0.00 | 0.00 | 91 | 1008.7 |
| 20260506001449 | 26 | 167 | 4.8 | 8.0 | 0.00 | 0.00 | 0.00 | 91 | 1008.7 |
| 20260506000946 | 26 | 149 | 3.2 | 4.8 | 0.00 | 0.00 | 0.00 | 91 | 1008.6 |
| 20260506000445 | 26 | 127 | 4.8 | 8.0 | 0.00 | 0.00 | 0.00 | 90 | 1008.7 |
| 20260505235940 | 26 | 156 | 6.4 | 9.7 | 0.00 | 0.00 | 0.00 | 90 | 1008.8 |
| 20260505235438 | 26 | 147 | 1.6 | 1.6 | 0.00 | 0.00 | 0.00 | 90 | 1008.7 |
| 20260505234935 | 26 | 183 | 6.4 | 9.7 | 0.00 | 0.00 | 0.00 | 90 | 1008.7 |
| 20260505234432 | 26 | 145 | 0.0 | 1.6 | 0.00 | 0.00 | 0.00 | 90 | 1008.8 |
| 20260505233929 | 26 | 152 | 1.6 | 1.6 | 0.00 | 0.00 | 0.00 | 89 | 1008.8 |
| 20260505233427 | 26 | 158 | 6.4 | 8.0 | 0.00 | 0.00 | 0.00 | 89 | 1008.8 |
| 20260505232924 | 26 | 274 | 1.6 | 4.8 | 0.00 | 0.00 | 0.00 | 88 | 1008.9 |
| 20260505232422 | 26 | 154 | 1.6 | 1.6 | 0.00 | 0.00 | 0.00 | 89 | 1008.9 |
| 20260505231918 | 26 | 150 | 3.2 | 8.0 | 0.00 | 0.00 | 0.00 | 88 | 1008.8 |
| 20260505231416 | 26 | 135 | 3.2 | 3.2 | 0.00 | 0.00 | 0.00 | 88 | 1008.7 |
| 20260505230914 | 26 | 237 | 6.4 | 9.7 | 0.00 | 0.00 | 0.00 | 87 | 1008.8 |
| 20260505230411 | 26 | 123 | 4.8 | 9.7 | 0.00 | 0.00 | 0.00 | 86 | 1008.8 |
| 20260505225907 | 27 | 151 | 3.2 | 3.2 | 0.00 | 0.00 | 0.00 | 85 | 1008.8 |
| 20260505225405 | 27 | 155 | 4.8 | 8.0 | 0.00 | 0.00 | 0.00 | 85 | 1008.8 |
| 20260505224900 | 27 | 177 | 1.6 | 3.2 | 0.00 | 0.00 | 0.00 | 85 | 1008.7 |
| 20260505224358 | 27 | 172 | 4.8 | 4.8 | 0.00 | 0.00 | 0.00 | 85 | 1008.8 |
| 20260505223854 | 27 | 156 | 6.4 | 9.7 | 0.00 | 0.00 | 0.00 | 84 | 1008.8 |
| 20260505223351 | 27 | 195 | 1.6 | 3.2 | 0.00 | 0.00 | 0.00 | 83 | 1009.0 |
| 20260505222847 | 27 | 163 | 4.8 | 4.8 | 0.00 | 0.00 | 0.00 | 83 | 1008.9 |
| 20260505222344 | 27 | 165 | 4.8 | 8.0 | 0.00 | 0.00 | 0.00 | 83 | 1009.0 |
| 20260505221841 | 27 | 196 | 3.2 | 4.8 | 0.00 | 0.00 | 0.00 | 84 | 1008.9 |
| 20260505221337 | 27 | 149 | 6.4 | 9.7 | 0.00 | 0.00 | 0.00 | 83 | 1009.0 |
| 20260505220835 | 28 | 157 | 4.8 | 9.7 | 0.00 | 0.00 | 0.00 | 82 | 1008.8 |
| 20260505220331 | 27 | 223 | 8.0 | 17.7 | 0.00 | 0.00 | 0.00 | 83 | 1009.0 |
| 20260505215829 | 27 | 221 | 4.8 | 8.0 | 0.00 | 0.00 | 0.00 | 84 | 1009.2 |
| 20260505215327 | 27 | 145 | 8.0 | 9.7 | 0.00 | 0.00 | 0.00 | 84 | 1009.1 |
| 20260505214825 | 27 | 153 | 11.3 | 17.7 | 0.00 | 0.00 | 0.00 | 85 | 1009.3 |
| 20260505214322 | 26 | 151 | 3.2 | 4.8 | 0.00 | 0.00 | 0.00 | 86 | 1009.3 |
| 20260505213819 | 26 | 171 | 3.2 | 8.0 | 0.00 | 0.00 | 0.00 | 87 | 1009.3 |
| 20260505213317 | 26 | 202 | 4.8 | 8.0 | 0.00 | 0.00 | 0.00 | 86 | 1009.3 |
| 20260505212813 | 26 | 167 | 4.8 | 8.0 | 0.00 | 0.00 | 0.00 | 86 | 1009.4 |
| 20260505212310 | 27 | 145 | 8.0 | 11.3 | 0.00 | 0.00 | 0.00 | 85 | 1009.5 |
| 20260505211806 | 27 | 174 | 4.8 | 8.0 | 0.00 | 0.00 | 0.00 | 85 | 1009.4 |
| 20260505211304 | 27 | 151 | 4.8 | 4.8 | 0.00 | 0.00 | 0.00 | 85 | 1009.3 |
| 20260505210800 | 27 | 151 | 9.7 | 11.3 | 0.00 | 0.00 | 0.00 | 85 | 1009.4 |
| 20260505210257 | 27 | 249 | 4.8 | 9.7 | 0.00 | 0.00 | 0.00 | 86 | 1009.8 |
| 20260505205754 | 27 | 149 | 6.4 | 8.0 | 0.00 | 0.00 | 0.00 | 86 | 1009.7 |
| 20260505205253 | 27 | 242 | 8.0 | 12.9 | 0.00 | 0.00 | 0.00 | 85 | 1010.0 |
| 20260505204749 | 27 | 285 | 3.2 | 8.0 | 0.00 | 0.00 | 0.00 | 85 | 1010.1 |
| 20260505204247 | 27 | 157 | 4.8 | 4.8 | 0.00 | 0.00 | 0.00 | 85 | 1010.2 |
| 20260505203744 | 27 | 123 | 8.0 | 11.3 | 0.00 | 0.00 | 0.00 | 85 | 1010.2 |
| 20260505203241 | 27 | 117 | 4.8 | 11.3 | 0.00 | 0.00 | 0.00 | 85 | 1010.2 |
| 20260505202736 | 27 | 188 | 4.8 | 4.8 | 0.00 | 0.00 | 0.00 | 84 | 1010.1 |
| 20260505202232 | 27 | 109 | 3.2 | 4.8 | 0.00 | 0.00 | 0.00 | 84 | 1010.3 |
| 20260505201729 | 27 | 151 | 4.8 | 8.0 | 0.00 | 0.00 | 0.00 | 84 | 1010.2 |
| 20260505201227 | 27 | 163 | 3.2 | 4.8 | 0.00 | 0.00 | 0.00 | 84 | 1010.3 |
| 20260505200725 | 27 | 168 | 3.2 | 4.8 | 0.00 | 0.00 | 0.00 | 85 | 1010.4 |
| 20260505200222 | 27 | 162 | 1.6 | 1.6 | 0.00 | 0.00 | 0.00 | 85 | 1010.6 |
| 20260505195717 | 27 | 163 | 1.6 | 3.2 | 0.00 | 0.00 | 0.00 | 85 | 1010.4 |
| 20260505195215 | 27 | 176 | 6.4 | 12.9 | 0.00 | 0.00 | 0.00 | 85 | 1010.5 |
| 20260505194712 | 27 | 132 | 6.4 | 11.3 | 0.00 | 0.00 | 0.00 | 84 | 1010.4 |
| 20260505194208 | 27 | 135 | 1.6 | 3.2 | 0.00 | 0.00 | 0.00 | 85 | 1010.4 |
| 20260505193704 | 27 | 179 | 6.4 | 8.0 | 0.00 | 0.00 | 0.00 | 84 | 1010.7 |
| 20260505193202 | 27 | 141 | 4.8 | 9.7 | 0.00 | 0.00 | 0.00 | 83 | 1010.4 |
| 20260505192700 | 27 | 179 | 0.0 | 1.6 | 0.00 | 0.00 | 0.00 | 85 | 1010.5 |
| 20260505192157 | 27 | 136 | 4.8 | 9.7 | 0.00 | 0.00 | 0.00 | 84 | 1010.5 |
| 20260505191656 | 27 | 157 | 1.6 | 3.2 | 0.00 | 0.00 | 0.00 | 84 | 1010.6 |
| 20260505191154 | 27 | 172 | 6.4 | 11.3 | 0.00 | 0.00 | 0.00 | 84 | 1010.5 |
| 20260505190649 | 27 | 176 | 3.2 | 4.8 | 0.00 | 0.00 | 0.00 | 84 | 1010.6 |
| 20260505190149 | 27 | 178 | 8.0 | 11.3 | 0.00 | 0.00 | 0.00 | 84 | 1010.5 |